Regional Weather Roundup
Issued by NWS

Home | Current Version | Previous Version | Text Only | Print | Product List | Glossary Off
Versions: 1 2 3 4 5 6 7 8 9 10 11 12 13 14 15 16 17 18 19 20 21 22 23 24 25 26 27

000
ASUS45 KBOU 172007
RWRCO

WEATHER ROUNDUP FOR COLORADO
NATIONAL WEATHER SERVICE DENVER/BOULDER CO
200 PM MDT THU AUG 17 2017

NOTE: "FAIR" INDICATES FEW OR NO CLOUDS BELOW 12000 FEET WITH NO
SIGNIFICANT WEATHER AND/OR OBSTRUCTIONS TO VISIBILITY.

COZ001>005-013-030-031-172100-
...NORTHWEST COLORADO...

CITY           SKY/WX    TMP DP  RH WIND       PRES   REMARKS
CRAIG          FAIR      82  29  14 W8        30.22F
HAYDEN         FAIR      79  33  19 W16       30.26F
MEEKER         FAIR      81  34  18 W12G24    30.24F
RABBIT EARS PA FAIR      55  36  47 W10G25    30.53S
STEAMBOAT SPGS NOT AVBL
WALDEN         FAIR      70  34  26 W15G24    30.36F
$$

COZ006>008-011-172100-
...WEST CENTRAL VALLEYS...

CITY           SKY/WX    TMP DP  RH WIND       PRES   REMARKS
GRAND JUNCTION FAIR      87  33  14 NW9       30.15F
MONTROSE       FAIR      83  35  18 N12       30.22F
EAGLE          FAIR      79  34  19 NW8       30.27S
RIFLE          FAIR      87  28  12 W16       30.18F
DELTA          FAIR      89  32  13 SW7       30.17F
NUCLA          FAIR      86  23  10 N7G20     30.26F
$$

COZ017>023-064>068-172100-
...SOUTHWEST COLORADO...

CITY           SKY/WX    TMP DP  RH WIND       PRES   REMARKS
DURANGO        FAIR      80  28  15 W14G21    30.29F
CORTEZ         FAIR      85  26  11 VRB3      30.23F
PAGOSA SPRINGS FAIR      78  20  11 W14G21    30.36S
TELLURIDE      FAIR      69  26  19 W8        30.49R
WOLF CREEK PAS PTSUNNY   55  32  41 S15G24    30.70S
$$

COZ009-010-012-014-032>034-037-058>063-172100-
...CENTRAL COLORADO...

CITY           SKY/WX    TMP DP  RH WIND       PRES   REMARKS
ASPEN          FAIR      73  34  23 VRB3      30.34S THUNDER
BUENA VISTA    PTSUNNY   71  28  19 NW3G21    30.33F
COPPER MTN     CLOUDY    54  28  37 W10G20    30.64S
BERTHOUD PASS  PTSUNNY   45  41  87 NW21G26   30.64S
COTTONWOOD PAS PTSUNNY   72  23  16 W7        30.47F
GUNNISON       FAIR      71  36  27 NW17      30.35F
KREMMLING      PTSUNNY   68  36  30 SW3G16    30.34R
LEADVILLE      PTSUNNY   65  26  23 NW14G22   30.47F
MONARCH PASS   PTSUNNY   55  28  35 W25G36    30.74S
SALIDA         FAIR      80  31  16 W16       30.37F
SUNLIGHT       PTSUNNY   63  34  34 SW10G17   30.59S
WILKERSON PASS CLOUDY    54  34  47 W3        30.61R
$$

COZ069>075-172100-
...SAN LUIS VALLEY/SANGRE DE CRISTO MOUNTAINS...

CITY           SKY/WX    TMP DP  RH WIND       PRES   REMARKS
ALAMOSA        FAIR      78  32  18 VRB5      30.33F
DEL NORTE      CLOUDY    75  33  21 SE9G21    30.35F
LA VETA PASS   NOT AVBL
SAGUACHE       FAIR      72  34  25 CALM      30.35F
$$

COZ035-036-038>040-172100-
...NORTHERN COLORADO FRONT RANGE...

CITY           SKY/WX    TMP DP  RH WIND       PRES   REMARKS
DENVER INTL AP FAIR      85  34  16 N10G17    30.12F
DMNS CITY PARK   N/A     81  36  19 E13       30.12S
AURORA         PTSUNNY   82  40  22 W7        30.15F
FRONT RANGE AP FAIR      86  34  15 N6        30.15S
ERIE MUNI ARPT FAIR      83  35  17 N5        30.16S
BOULDER MUN AP LGT RAIN  79  32  18 W15G31    30.12S
CENTENNIAL     FAIR      81  34  18 W9        30.16F
BROOMFIELD     PTSUNNY   82  36  18 NW9       30.15F
FORT COLLINS   FAIR      81  43  26 SW8       30.10F
LONGMONT       FAIR      87  37  16 E6        30.11F
$$

COZ041-046-047-076>085-087-088-172100-
...PIKES PEAK/PALMER DIVIDE AND SOUTHERN FOOTHILLS...

CITY           SKY/WX    TMP DP  RH WIND       PRES   REMARKS
COLO. SPRINGS  FAIR      81  42  25 SE10      30.22F
A. F. ACADEMY  PTSUNNY   76  38  25 NW16G25   30.23R
SCHRIEVER AFB  FAIR      77  43  29 S12       30.22F
CHEYENNE MTN   PTSUNNY   73  48  41 SE9       30.21F
ELLICOTT       FAIR     N/A N/A N/A S8        30.20F
FALCON         FAIR      79  39  24 SW6       30.26F
FORT CARSON    FAIR      76  51  40 E8        30.17F
LIMON          FAIR      78  54  43 SW9       30.14F
MONUMENT HILL  LGT RAIN  61  43  51 NW24G35   30.31R
CANON CITY     SUNNY     90  39  17 SW9       30.12F
WALSENBURG     FAIR      90  32  12 W13G28    30.19F
TRINIDAD       LGT RAIN  75  47  36 NE10      30.19F
$$

COZ042>045-048>051-090-091-172100-
...NORTHEAST COLORADO...

CITY           SKY/WX    TMP DP  RH WIND       PRES   REMARKS
GREELEY ARPT   FAIR      87  45  23 SE5       30.08F
AKRON          FAIR      85  41  21 W12       30.08F
BURLINGTON     FAIR      83  60  45 SW12      30.10F
WRAY           NOT AVBL
YUMA           FAIR      82  37  20 S7G17     30.04F
STERLING       FAIR      88  52  29 S9        30.02F
HOLYOKE        FAIR      86  55  35 S12       30.03F
FORT MORGAN    FAIR      88  35  15 SW13G20   30.08F
$$

COZ086-089-092>099-172100-
...SOUTHEAST COLORADO...

CITY           SKY/WX    TMP DP  RH WIND       PRES   REMARKS
PUEBLO         FAIR      88  43  20 MISG      30.09F
LA JUNTA       FAIR      86  54  33 S5        30.09F
LAMAR          FAIR      88  60  38 S13G20    30.05F
SPRINGFIELD      N/A     84  62  47 S17       30.13F
$$




USA.gov is the U.S. government's official web portal to all federal, state and local government web resources and services.